Regional Weather Roundup
Issued by NWS

Home | Current Version | Previous Version | Graphics & Text | Print | Product List | Glossary On
Versions: 1 2 3 4 5 6 7 8 9 10 11 12 13 14 15 16 17 18 19 20 21 22 23 24 25 26 27 28 29 30 31 32 33 34 35 36 37 38 39 40 41 42 43 44 45 46 47 48 49 50
807
ASUS45 KBOU 221007
RWRCO

WEATHER ROUNDUP FOR COLORADO
NATIONAL WEATHER SERVICE DENVER/BOULDER CO
400 AM MDT THU JUN 22 2017

NOTE: "FAIR" INDICATES FEW OR NO CLOUDS BELOW 12000 FEET WITH NO
SIGNIFICANT WEATHER AND/OR OBSTRUCTIONS TO VISIBILITY.

COZ001>005-013-030-031-221100-
...NORTHWEST COLORADO...

CITY           SKY/WX    TMP DP  RH WIND       PRES   REMARKS
CRAIG          FAIR      56  44  64 SE3       30.06R
HAYDEN         FAIR      63  39  42 E13       30.08R
MEEKER         FAIR      59  42  53 NE7       30.06F
RABBIT EARS PA PTSUNNY   52  32  46 W7        30.37F
STEAMBOAT SPGS FAIR      62  40  44 SE6       30.09R
WALDEN         FAIR      57  37  47 SW16G24   30.18F
$$

COZ006>008-011-221100-
...WEST CENTRAL VALLEYS...

CITY           SKY/WX    TMP DP  RH WIND       PRES   REMARKS
GRAND JUNCTION FAIR      72  40  31 SE8       29.91F
MONTROSE       FAIR      64  38  38 S8        30.01S
EAGLE          FAIR      57  37  47 SE6       30.14F
RIFLE          FAIR      67  39  35 SE10      30.01S
DELTA          FAIR      70  39  32 NE7       29.98R
NUCLA          FAIR      63  32  31 SE8       30.04F
$$

COZ017>023-064>068-221100-
...SOUTHWEST COLORADO...

CITY           SKY/WX    TMP DP  RH WIND       PRES   REMARKS
DURANGO        FAIR      54  34  46 N3        30.08F
CORTEZ         FAIR      53  42  66 CALM      30.03S
PAGOSA SPRINGS FAIR      57  33  40 CALM      30.19S
TELLURIDE      FAIR      58  32  38 SE7       30.31F
WOLF CREEK PAS FAIR      54  25  32 NW3       30.58S
$$

COZ009-010-012-014-032>034-037-058>063-221100-
...CENTRAL COLORADO...

CITY           SKY/WX    TMP DP  RH WIND       PRES   REMARKS
ASPEN          FAIR      53  37  54 SW9       30.20R
BUENA VISTA    FAIR      54  32  43 CALM      30.21F
COPPER MTN     FAIR      54  28  37 NW17G29   30.53S
BERTHOUD PASS  FAIR      46  34  61 NW30G38   30.53F
COTTONWOOD PAS FAIR      63  23  22 W6        30.35S
GUNNISON       FAIR      50  38  63 NE5       30.23S
KREMMLING      NOT AVBL
LEADVILLE      FAIR      40  29  64 N6        30.36S
MONARCH PASS   FAIR      52  27  37 SW14      30.63F
SALIDA         FAIR      58  33  38 NW5       30.25F
SUNLIGHT       FAIR      54  28  37 CALM      30.44F
WILKERSON PASS FAIR      54  27  35 W5        30.49S
$$

COZ069>075-221100-
...SAN LUIS VALLEY/SANGRE DE CRISTO MOUNTAINS...

CITY           SKY/WX    TMP DP  RH WIND       PRES   REMARKS
ALAMOSA        FAIR      50  42  74 SE6       30.16F
DEL NORTE      FAIR      59  32  35 W16       30.20F
LA VETA PASS   FAIR      59  32  36 SW14      30.47F
SAGUACHE       FAIR      59  32  36 NW14      30.20F
$$

COZ035-036-038>040-221100-
...NORTHERN COLORADO FRONT RANGE...

CITY           SKY/WX    TMP DP  RH WIND       PRES   REMARKS
DENVER INTL AP FAIR      71  37  28 SW13      29.91F
DMNS CITY PARK   N/A     71  39  32 S6        29.92S
AURORA         PTCLDY    69  39  32 S13       29.94F
FRONT RANGE AP FAIR      73  36  25 S14       29.93S
ERIE MUNI ARPT FAIR      64  40  40 CALM      29.90S
BOULDER MUN AP FAIR      77  34  20 SW9       29.90F
CENTENNIAL     FAIR      66  40  38 VRB3      29.96F
BROOMFIELD     FAIR      72  34  25 W12       29.94F
FORT COLLINS   FAIR      65  43  44 CALM      29.88S
LONGMONT       FAIR      71  38  30 SW3       29.90F
$$

COZ041-046-047-076>085-087-088-221100-
...PIKES PEAK/PALMER DIVIDE AND SOUTHERN FOOTHILLS...

CITY           SKY/WX    TMP DP  RH WIND       PRES   REMARKS
COLO. SPRINGS  FAIR      65  39  38 N8        30.01F
A. F. ACADEMY  FAIR      56  40  53 N8        30.04S
SCHRIEVER AFB  NOT AVBL
CHEYENNE MTN   NOT AVBL
ELLICOTT       FAIR     N/A N/A N/A SE6G16    29.99F
FALCON           N/A     63  34  34 W10       30.07F
FORT CARSON    FAIR      64  38  38 NW9       29.96F
LIMON          FAIR      50  40  68 CALM      29.94S
MONUMENT HILL  FAIR      64  34  32 SW9       30.09S
CANON CITY     CLEAR     73  39  29 W18       29.95S
WALSENBURG     FAIR      64  41  42 CALM      30.00S
TRINIDAD       FAIR      68  43  40 CALM      30.01S
$$

COZ042>045-048>051-090-091-221100-
...NORTHEAST COLORADO...

CITY           SKY/WX    TMP DP  RH WIND       PRES   REMARKS
GREELEY ARPT   FAIR      58  49  72 NW5       29.86F
AKRON          FAIR      70  40  33 SW14      29.84F
BURLINGTON     FAIR      72  54  53 SW20G26   29.84S
WRAY           FAIR      70  52  52 SW14      29.76F
YUMA           FAIR      59  43  55 SW8       29.80F
STERLING       FAIR      59  50  72 SW5       29.78S
HOLYOKE        NOT AVBL
FORT MORGAN    FAIR      60  42  50 W8        29.84F
$$

COZ086-089-092>099-221100-
...SOUTHEAST COLORADO...

CITY           SKY/WX    TMP DP  RH WIND       PRES   REMARKS
PUEBLO         FAIR      61  49  64 N3        29.91S
LA JUNTA       FAIR      76  52  43 SW18G30   29.87F
LAMAR          FAIR      74  55  51 SW25G35   29.81F
SPRINGFIELD      N/A     65  57  75 SW15G23   29.91F
$$




USA.gov is the U.S. government's official web portal to all federal, state and local government web resources and services.